Location: Lynch Observatory
(39.9540°N, 75.1861°W)
Time: 23:57:39
(UTC-04:00)

RS-44 - Visible Passes

Search period start: 15 April 2024 00:00
Search period end: 25 April 2024 00:00
Orbit: 1175 x 1510 km, 82.5° (Epoch: 15 April)

Date Brightness Start Highest point End Pass type
(mag) Time Alt. Az. Time Alt. Az. Time Alt. Az.
15 Apr ? 20:55:48 10° S 21:04:33 64° E 21:13:05 10° NNE visible
15 Apr ? 22:51:09 10° SW 22:58:31 29° WNW 23:05:46 10° NNW visible
16 Apr ? 21:19:20 10° S 21:28:17 86° W 21:36:59 10° N visible
16 Apr ? 23:17:14 10° WSW 23:22:55 18° WNW 23:28:30 10° NNW visible
17 Apr ? 21:43:26 10° SSW 21:52:10 59° WNW 22:00:39 10° N visible
17 Apr ? 23:45:37 10° WNW 23:47:32 11° WNW 23:49:26 10° NW visible
18 Apr ? 20:14:21 10° SSE 20:22:42 47° E 20:30:47 10° NNE visible
18 Apr ? 22:08:06 10° SW 22:16:12 39° WNW 22:24:06 10° N visible
19 Apr ? 20:37:29 10° S 20:46:19 72° E 20:54:50 10° NNE visible
19 Apr ? 22:33:29 10° WSW 22:40:26 25° WNW 22:47:14 10° NNW visible
20 Apr ? 21:01:11 10° S 21:10:05 78° W 21:18:39 10° N visible
20 Apr ? 22:59:57 10° W 23:04:52 16° WNW 23:09:42 10° NNW visible
21 Apr ? 21:25:26 10° SSW 21:34:00 52° WNW 21:42:16 10° N visible
22 Apr ? 21:50:17 10° SW 21:58:04 34° WNW 22:05:38 10° N visible
23 Apr ? 20:19:14 10° S 20:28:05 79° E 20:36:32 10° N visible
23 Apr ? 22:15:54 10° WSW 22:22:21 22° WNW 22:28:36 10° NNW visible
24 Apr ? 20:43:05 10° SSW 20:51:53 71° W 21:00:17 10° N visible
24 Apr ? 22:42:54 10° W 22:46:49 14° WNW 22:50:41 10° NNW visible
